Theta_e
348 347 347 347 348 347 346 347 346 347 347 347 346 345 344 343 343 343 344 344 345 346 348 348 347 346 345 346 349 351 350 350 353 354 355 356 356 357 355 352 352 353 354 354 355 355 354 355 355 353 350 351 353 353 353 353 352 351 351 352 354 354 353 355 358 359 360 358 356 356 353 351 354 354 352 356 355 349 347 349 349 353 358 361 361
348 347 347 347 347 347 347 347 347 347 348 348 346 345 344 342 342 342 342 342 343 344 346 346 345 344 344 344 346 348 348 349 350 352 354 355 356 357 356 353 351 352 353 353 353 354 354 354 357 357 354 354 355 354 353 354 355 355 355 355 356 356 355 356 359 359 360 361 359 358 356 353 355 356 353 354 353 348 348 351 353 355 357 360 360
348 347 347 347 347 347 348 348 348 348 348 348 347 347 345 344 342 342 342 341 341 341 343 343 342 342 343 343 344 345 346 347 348 349 351 353 354 357 358 355 352 353 354 353 354 354 354 355 357 358 357 357 357 356 355 355 355 356 358 358 357 358 357 355 358 359 360 361 360 359 359 357 357 356 353 353 352 350 350 352 354 354 356 360 361
349 348 348 348 348 349 349 349 349 349 348 349 348 348 347 346 344 343 343 343 341 338 339 341 342 342 342 342 343 344 344 345 347 347 348 350 351 354 356 356 355 355 355 355 355 355 356 357 358 358 358 358 358 358 357 357 356 356 358 358 357 358 359 357 357 359 360 361 361 360 357 356 356 355 353 354 354 353 351 351 353 353 354 358 360
349 349 349 349 350 350 350 350 349 349 349 349 348 348 348 347 346 344 344 345 343 340 338 340 342 343 342 342 342 342 343 343 344 346 347 348 348 350 352 354 355 355 355 355 355 355 356 357 357 358 358 358 358 359 359 358 357 357 358 359 358 358 358 357 357 358 359 361 362 361 358 356 357 356 353 354 357 357 355 354 352 352 352 355 358
349 349 349 349 350 350 351 350 350 349 349 348 348 349 348 348 347 345 344 345 345 343 340 338 338 340 342 342 341 341 342 342 342 344 347 349 348 349 350 351 351 353 354 355 356 356 356 356 356 356 356 356 357 358 359 357 357 358 358 358 358 358 358 359 359 359 360 361 362 362 361 359 359 359 355 352 354 357 357 357 357 354 352 354 357
349 349 349 349 350 351 351 350 350 350 349 349 348 348 348 348 348 346 345 345 345 345 344 340 335 334 338 341 342 341 341 342 342 342 345 349 349 348 350 351 351 350 351 353 356 357 358 357 356 356 355 354 353 355 357 356 356 356 357 357 358 358 359 360 361 361 361 362 362 361 362 360 360 360 356 351 351 355 357 358 360 359 356 354 355
348 349 349 350 351 351 351 350 350 350 350 349 348 348 349 348 348 347 346 345 345 345 345 344 338 335 336 339 341 342 342 342 343 342 344 347 349 349 350 351 352 351 349 349 352 355 357 357 357 357 356 354 351 351 352 354 354 356 356 356 358 359 360 361 361 362 362 362 361 361 361 361 360 360 358 355 357 360 360 359 359 360 358 355 355
347 348 350 350 351 351 350 351 351 351 351 350 348 348 349 348 348 348 347 346 345 345 344 345 344 341 339 339 340 342 343 342 342 343 343 345 347 350 350 350 352 353 351 350 351 353 354 356 357 356 355 353 351 349 348 347 349 354 356 356 355 357 360 360 361 362 362 361 361 361 362 361 361 362 362 361 361 361 360 359 359 360 359 358 357
347 348 350 351 351 349 349 351 351 351 351 350 349 349 350 350 349 348 347 347 347 346 344 344 345 344 343 342 341 343 343 342 341 341 342 342 344 347 349 348 348 351 353 353 353 352 353 354 355 354 350 349 350 349 348 346 345 347 352 354 354 357 360 361 361 362 362 361 361 360 360 360 358 360 361 361 361 360 360 360 361 362 361 360 361
348 349 351 351 349 348 349 350 351 351 350 350 351 350 350 351 350 349 348 348 347 347 346 345 345 345 345 345 344 344 343 341 339 340 341 341 342 345 347 348 347 349 352 353 353 353 353 353 353 353 349 346 348 348 347 347 347 346 346 349 351 354 358 361 361 362 362 361 360 360 360 360 358 359 359 360 360 361 361 361 361 362 362 360 361
351 351 351 351 348 348 350 351 351 351 350 351 351 351 351 351 351 350 349 348 348 347 347 347 346 346 347 347 346 345 343 340 338 339 340 340 341 343 347 351 351 351 353 354 353 354 354 354 354 355 353 347 346 349 349 347 346 347 346 347 349 350 353 356 358 360 362 362 360 360 360 360 360 360 359 359 360 360 361 361 362 361 361 360 360
353 352 351 351 350 349 351 352 353 352 351 351 351 352 352 352 352 351 350 350 349 348 348 348 348 347 348 348 347 347 346 342 340 339 339 339 340 341 346 351 354 353 353 354 354 354 355 355 355 355 354 349 346 349 351 349 347 347 347 349 351 350 350 352 352 354 358 361 362 361 361 362 361 359 357 356 357 359 360 361 362 361 360 361 360
356 355 352 351 351 350 351 352 353 354 353 352 352 353 353 353 353 352 352 352 351 349 349 349 349 349 348 348 348 348 347 346 343 342 340 340 341 341 344 349 353 354 354 353 354 355 354 355 355 353 352 351 348 347 350 351 350 350 350 350 350 349 349 350 350 351 354 357 360 361 360 361 360 356 354 353 355 358 360 361 361 362 361 360 359
350 354 355 354 351 351 352 352 353 354 354 354 354 354 354 354 354 353 353 353 352 351 350 350 350 349 349 349 350 349 349 347 346 346 344 342 343 343 344 347 351 353 354 354 353 353 353 354 355 354 353 353 350 347 349 352 353 355 356 355 354 353 352 351 349 351 352 353 355 356 356 358 357 355 354 355 355 355 356 357 358 359 359 358 358
343 346 350 353 354 354 353 353 354 354 355 355 355 355 356 355 354 354 354 354 353 353 352 351 351 350 350 350 350 350 350 349 348 347 346 345 345 345 345 346 349 352 355 355 354 351 351 353 354 354 355 354 349 346 349 353 357 360 360 359 359 359 357 353 349 349 351 352 352 353 354 355 355 354 354 356 356 356 356 357 356 357 358 358 358
337 338 341 345 349 354 355 355 355 355 355 356 356 356 356 356 355 355 355 354 354 354 353 353 352 352 351 351 350 351 351 350 349 348 348 346 345 346 345 346 347 350 353 356 355 353 352 352 352 353 355 353 349 347 348 352 356 359 360 360 360 360 360 357 352 349 349 351 351 351 351 351 352 352 352 353 354 355 356 357 357 357 358 359 359
332 334 336 338 341 347 354 357 357 356 356 357 356 356 357 356 356 356 355 355 355 354 354 354 353 353 352 352 351 351 351 351 350 349 348 347 346 346 346 346 347 350 352 354 355 355 354 352 351 352 353 351 349 348 349 352 354 356 359 360 360 360 360 359 357 354 352 351 351 351 351 351 351 352 352 353 354 353 353 355 357 358 359 359 360
330 331 332 334 337 341 348 356 359 357 357 357 356 356 356 357 356 356 356 355 355 355 355 355 355 354 354 353 352 351 352 352 351 350 349 348 347 346 346 347 349 350 351 353 354 355 354 352 350 349 350 349 348 349 351 352 353 355 358 359 360 360 359 359 359 359 357 355 353 352 352 351 351 352 353 353 355 354 354 354 355 357 358 359 359
329 331 332 333 335 338 342 349 357 359 359 358 358 358 358 357 357 357 357 356 356 356 356 356 356 356 355 355 353 352 352 352 352 351 350 349 348 347 346 348 350 351 352 354 355 355 355 353 351 349 348 347 348 349 350 352 353 354 357 359 360 359 358 358 359 358 358 358 356 355 355 355 354 355 355 355 355 356 356 355 355 357 358 359 359
327 330 332 333 334 336 338 343 349 356 360 361 359 359 360 359 359 359 358 358 357 358 358 357 357 357 356 356 355 354 354 353 352 352 351 350 349 348 347 347 349 351 353 354 354 355 355 355 353 351 348 347 347 348 350 351 352 354 356 357 357 355 354 357 358 358 358 357 357 357 358 358 357 358 358 357 357 356 356 356 356 356 357 358 358
326 328 331 333 333 334 336 339 342 347 355 361 362 362 361 361 361 361 361 360 360 360 360 359 358 359 358 358 357 357 356 355 354 353 353 352 351 349 348 348 348 350 353 354 354 354 355 355 354 351 349 348 347 348 349 351 352 353 354 353 352 351 352 354 356 358 358 358 358 358 359 359 359 359 359 359 359 358 357 357 357 356 356 357 358
324 327 330 332 333 333 334 337 339 341 346 353 358 361 362 362 363 363 363 362 362 361 361 361 360 360 360 359 359 358 357 356 356 354 353 353 352 351 350 349 349 349 351 354 354 354 354 355 354 351 350 349 348 349 349 350 351 352 352 351 351 351 353 353 355 357 358 358 358 359 359 360 360 360 360 360 360 361 360 358 357 356 357 357 357
323 327 329 331 331 331 333 334 336 338 340 344 348 354 359 361 363 364 364 363 363 363 362 362 362 361 361 361 360 360 359 358 358 356 355 354 354 353 352 351 350 349 350 352 353 354 354 354 353 351 350 349 349 350 350 351 351 351 350 351 351 352 353 353 354 355 357 357 358 358 358 360 360 360 361 361 361 360 360 360 358 357 357 357 357
323 326 329 330 330 331 332 333 335 337 340 342 344 348 354 358 361 363 364 364 363 363 363 363 363 362 362 362 361 361 361 360 360 359 357 356 355 354 353 352 352 351 349 350 352 353 354 354 352 351 350 350 350 350 350 351 351 351 351 351 351 352 353 353 353 354 356 357 357 358 359 360 359 359 359 360 360 360 361 361 359 357 357 357 358
324 326 327 328 329 330 332 334 335 337 340 343 344 346 351 356 359 362 364 364 364 364 363 364 363 363 363 363 362 362 362 361 361 360 359 357 356 355 354 353 353 352 351 350 351 351 352 352 352 351 351 351 351 351 351 352 351 351 351 351 351 352 352 352 353 354 356 357 358 359 359 359 360 359 358 358 360 360 360 361 360 358 357 358 359
326 326 327 327 328 329 332 334 334 336 339 343 345 347 350 353 357 360 363 364 364 365 365 364 363 363 363 363 362 363 363 362 362 362 361 359 357 356 355 354 353 352 351 351 351 351 351 351 351 351 351 351 351 351 352 352 352 352 351 352 352 352 352 352 353 354 356 358 359 360 360 360 360 361 360 360 360 359 359 359 360 359 359 358 358
326 326 326 327 328 329 331 331 331 333 335 339 342 345 348 350 353 357 361 363 364 365 365 364 364 364 364 364 364 363 363 363 363 363 362 360 358 357 356 355 354 352 351 351 351 351 351 351 351 351 351 351 352 351 351 351 351 351 352 352 352 352 353 353 353 354 356 358 359 360 361 361 361 361 361 360 360 360 359 359 359 358 358 357 357
325 325 326 327 327 328 329 329 329 330 332 335 338 342 345 347 349 353 356 359 361 363 363 364 364 364 364 365 364 364 365 365 364 363 362 361 360 358 357 356 355 354 354 354 352 350 350 351 352 353 352 352 353 353 353 353 353 353 353 353 352 353 353 353 353 355 357 358 359 360 361 361 361 361 360 361 360 359 359 359 358 358 358 357 357
324 325 325 326 326 326 327 327 328 329 330 332 335 338 341 344 346 349 351 353 355 358 360 362 364 364 364 365 365 365 365 365 364 363 362 361 360 359 358 358 357 356 356 354 350 348 349 351 353 354 354 354 354 355 355 356 355 356 356 355 354 354 354 354 355 356 356 357 358 359 359 360 361 361 361 360 360 359 359 358 357 358 358 356 356
323 323 324 324 324 325 325 326 327 328 329 330 331 333 335 338 342 345 348 349 352 355 357 359 361 362 363 364 364 364 364 364 363 362 362 361 360 359 359 359 358 357 356 353 348 346 349 352 353 354 354 355 356 355 356 357 357 357 357 357 356 355 355 355 356 356 357 357 357 358 359 359 361 361 360 360 359 359 359 358 357 357 357 356 356
322 322 322 323 324 324 325 326 326 327 327 327 328 329 331 334 337 340 343 346 348 351 355 358 360 361 361 362 363 363 364 363 362 362 361 361 360 360 359 358 358 358 356 352 348 347 349 351 353 354 355 355 356 356 356 357 358 358 358 358 359 357 356 356 355 356 356 357 358 358 359 359 360 360 360 359 359 358 358 358 357 356 356 356 355
321 321 322 322 323 324 324 324 324 324 324 325 325 326 328 331 334 337 340 343 346 349 353 356 359 360 361 362 362 362 362 363 362 361 361 360 360 359 359 359 358 357 355 350 348 349 350 351 353 355 355 356 356 356 357 357 358 359 359 359 359 359 358 356 355 356 356 357 358 358 359 359 359 359 359 358 358 358 358 358 357 356 356 355 354
319 320 321 322 323 323 322 322 322 322 322 323 324 325 326 328 330 333 336 340 343 347 350 354 356 359 361 362 362 362 362 362 361 361 360 360 360 359 359 357 356 355 352 349 349 351 353 353 354 355 356 356 357 357 357 358 358 359 359 360 360 360 360 358 357 356 356 356 357 357 357 358 358 358 358 358 358 358 358 358 357 356 355 354 353
318 319 320 321 321 321 320 320 320 320 321 321 323 324 325 326 327 330 333 336 339 342 345 348 351 355 358 361 362 362 362 362 361 360 359 359 359 358 356 353 351 350 349 348 348 351 354 355 355 355 355 356 356 357 357 358 359 359 360 360 360 360 361 360 359 358 357 356 356 356 356 356 357 357 357 358 358 358 358 357 356 356 355 354 352
317 318 319 319 319 319 319 319 319 319 320 321 321 322 324 325 327 329 331 334 336 339 343 345 347 350 353 357 359 361 362 362 361 360 359 358 358 356 353 350 349 349 348 347 348 350 353 355 356 356 356 356 356 357 358 358 359 359 359 359 359 360 360 361 360 359 357 356 356 356 356 356 356 357 357 358 357 357 357 357 356 356 355 353 351
317 317 317 318 318 318 318 318 318 319 320 320 321 322 324 325 326 328 329 332 336 339 343 345 346 347 349 353 356 359 361 361 361 360 358 356 354 353 351 351 352 352 350 349 348 349 351 353 355 356 356 355 356 357 358 358 359 359 358 357 358 359 359 359 359 359 358 357 357 356 356 356 356 356 357 357 357 357 357 357 356 355 354 353 350
316 316 317 316 316 316 317 317 318 319 320 321 321 322 323 324 324 326 327 330 333 337 341 344 346 346 348 350 354 357 358 359 359 358 355 351 349 349 349 351 353 355 354 353 351 351 351 353 354 355 355 356 356 357 358 358 359 359 358 357 356 356 357 357 358 358 358 358 357 357 356 356 356 356 356 356 356 356 356 356 355 354 352 350 348
315 315 315 315 315 315 316 317 318 319 320 321 321 321 321 322 323 324 325 327 329 332 336 341 344 346 347 348 351 353 354 355 354 354 352 350 349 348 348 349 352 355 357 356 355 353 352 353 354 354 355 355 355 356 357 357 358 358 358 357 357 356 357 357 358 358 358 358 358 357 357 357 356 356 356 355 355 356 356 355 354 352 351 348 346
313 314 314 314 314 315 315 317 318 318 319 320 319 319 319 320 320 321 322 324 326 328 331 334 338 342 345 347 348 350 351 353 353 354 353 351 349 348 347 348 350 353 356 357 358 357 354 353 354 354 354 355 355 355 356 356 357 357 357 357 358 358 359 359 358 358 358 358 357 357 357 357 357 356 356 356 355 355 355 353 352 351 351 348 345
312 313 313 313 313 314 315 316 317 317 318 317 317 317 317 318 319 320 321 322 323 325 327 329 332 335 339 343 344 346 348 350 351 352 353 353 352 351 350 349 351 352 353 355 357 358 357 355 354 354 354 354 355 355 355 355 355 357 357 357 358 358 359 360 359 358 358 358 358 357 357 357 356 356 356 355 354 354 353 352 350 349 349 348 344
312 312 312 313 313 313 314 315 315 315 315 315 315 315 316 316 317 318 319 319 320 322 323 325 328 331 334 337 340 342 344 346 348 349 350 351 351 352 352 352 352 352 352 353 355 356 357 356 355 355 354 354 354 354 354 354 354 356 357 358 358 358 358 359 359 358 358 357 357 357 357 356 356 355 355 354 353 352 351 351 348 347 347 347 343
311 311 311 312 313 313 313 313 313 313 313 313 314 314 314 315 315 316 316 317 318 319 321 322 324 327 330 333 336 339 342 344 346 347 348 349 350 350 351 352 353 353 352 353 354 355 355 356 356 355 354 353 353 353 353 353 354 355 356 356 355 355 357 358 358 357 357 357 357 357 356 355 355 354 353 352 352 351 351 350 347 345 344 344 343
310 310 310 311 312 312 312 312 312 312 312 312 312 312 313 313 313 314 314 315 316 317 318 319 320 321 323 327 332 337 340 342 344 346 347 348 349 350 351 352 352 353 353 353 353 354 354 354 355 355 354 354 353 353 353 353 353 354 354 353 352 351 352 354 356 356 356 356 356 356 355 354 354 353 352 351 351 350 349 348 347 345 343 342 342
308 309 309 310 311 311 311 311 310 310 310 310 310 310 311 312 312 312 312 313 313 314 314 314 315 316 317 320 325 331 335 339 342 344 345 346 346 347 348 350 351 352 352 352 352 352 352 352 352 352 353 352 352 352 352 352 352 352 352 351 350 350 350 351 353 354 354 354 354 354 353 353 352 351 351 350 350 349 348 347 345 345 343 342 341
307 307 308 309 309 310 310 309 309 309 309 308 309 309 309 310 310 311 311 310 310 311 311 311 311 312 312 314 317 322 326 330 333 335 336 337 337 337 339 342 343 344 345 345 346 347 348 349 349 349 349 350 350 350 350 349 349 350 350 349 348 348 348 349 351 352 353 353 353 352 352 352 351 350 350 349 348 347 347 346 344 344 343 343 342
305 306 307 308 308 308 308 308 307 308 307 307 308 308 308 308 309 309 309 308 308 308 308 307 307 308 309 309 310 313 316 319 321 322 323 323 324 324 326 329 331 332 332 333 335 337 339 341 343 343 344 345 346 347 347 346 346 347 348 347 346 346 346 347 349 350 350 351 351 350 350 350 349 349 348 347 346 346 346 345 343 342 342 342 341
305 306 306 307 307 307 307 306 306 306 306 306 306 306 307 307 307 307 307 307 306 305 305 305 305 306 306 306 306 306 307 309 311 312 312 313 313 314 316 318 319 321 321 322 324 325 327 329 332 334 335 337 338 339 340 341 341 342 344 346 346 346 346 346 346 347 347 347 347 348 348 347 346 346 346 345 345 345 345 344 342 340 339 339 338
304 305 305 305 305 305 305 305 305 304 304 305 305 305 305 306 306 305 305 305 304 304 303 303 303 303 304 304 304 303 303 304 304 305 305 306 306 307 308 310 311 312 313 314 315 315 316 318 321 323 326 327 328 330 332 334 335 338 341 343 343 343 343 344 344 344 344 345 345 345 345 345 344 344 344 344 343 342 341 341 340 338 336 335 335
303 304 304 304 304 304 304 304 304 303 304 304 304 304 304 304 304 304 304 303 303 303 302 302 302 302 302 302 302 301 301 301 301 300 301 301 302 303 303 304 305 305 306 306 307 308 309 310 311 314 317 319 321 323 326 328 330 332 335 337 337 338 339 340 341 341 342 344 344 344 343 343 343 342 341 340 340 339 338 337 337 335 333 332 332
302 303 303 303 303 303 303 303 303 302 303 303 303 303 303 303 303 303 303 302 302 301 301 300 300 300 301 301 301 300 300 299 299 299 299 299 299 300 300 301 301 301 301 302 302 303 303 304 305 306 308 310 314 317 321 324 327 329 331 332 333 334 336 338 340 341 342 342 342 342 341 340 340 339 337 336 336 335 334 333 331 330 329 329 328
Wind_Speed
33 37 37 37 38 39 39 39 38 38 36 36 36 35 34 33 32 30 29 27 27 26 25 24 23 21 19 18 18 17 17 17 17 17 16 16 15 14 14 15 14 12 12 11 11 11 10 10 11 11 11 10 9 8 7 7 7 6 6 5 5 6 5 4 5 7 6 8 10 10 11 12 11 13 15 13 13 15 15 14 13 11 8 7 9
32 36 38 37 38 38 37 37 38 38 36 35 36 36 35 34 33 31 30 28 27 27 27 26 25 23 22 20 19 19 18 18 17 17 17 17 16 15 14 16 16 15 14 13 13 12 12 11 10 10 9 9 9 9 9 8 7 7 6 6 6 6 6 6 6 8 8 8 9 10 10 12 11 12 15 15 14 15 16 13 11 10 8 7 8
31 37 39 37 38 37 35 34 35 36 34 33 34 35 34 35 34 33 31 30 28 28 27 26 25 24 23 22 20 20 20 19 19 18 18 18 17 17 16 16 17 17 16 15 14 13 13 13 11 10 10 9 9 9 9 9 9 8 8 7 7 7 7 8 7 8 10 9 9 9 10 11 11 12 15 15 14 14 15 12 10 10 8 6 6
27 33 36 35 34 33 33 32 31 32 32 31 32 32 30 32 35 34 32 30 30 29 28 27 26 25 24 23 22 21 20 20 20 20 19 18 18 18 18 18 18 18 17 16 15 14 14 14 12 11 11 11 10 9 9 10 10 10 9 9 9 8 8 10 10 9 10 10 10 10 12 13 13 14 15 14 13 13 13 11 10 10 9 6 5
24 28 31 30 28 29 31 29 28 30 30 29 31 31 28 28 32 34 33 31 30 30 30 28 27 26 26 25 25 24 22 21 21 21 21 21 20 19 19 19 19 18 18 18 17 16 16 15 14 13 12 12 12 11 10 11 11 11 10 10 10 9 9 11 11 11 10 11 11 11 13 14 13 14 15 13 12 11 11 9 9 10 10 8 5
22 25 27 27 27 28 29 29 29 30 31 30 29 29 28 27 30 33 34 32 30 30 31 31 30 29 28 27 27 26 25 23 23 23 23 22 22 21 20 20 20 19 19 19 18 18 17 17 16 15 15 14 14 13 12 12 12 12 12 11 11 11 11 11 12 11 11 11 12 12 12 12 12 12 13 14 13 11 9 8 7 8 11 10 6
22 23 25 26 26 27 29 31 31 29 31 32 30 28 28 28 28 32 33 33 32 29 29 32 33 32 31 29 28 28 28 27 25 24 24 24 24 23 22 21 20 20 20 19 18 18 17 17 17 17 17 17 17 15 14 14 14 14 14 13 12 11 11 10 10 10 10 11 11 11 11 11 11 12 13 14 14 10 8 7 6 6 8 10 9
24 23 25 25 26 28 31 32 32 30 30 33 33 30 28 27 28 30 32 33 33 30 28 30 32 33 32 31 31 29 29 29 28 27 26 26 25 25 24 23 21 21 21 21 20 18 18 18 18 18 19 19 19 18 16 16 15 15 15 14 13 12 11 10 9 10 10 11 11 11 11 10 11 11 12 11 10 7 6 7 9 8 8 9 10
30 28 26 27 29 32 33 30 29 30 29 32 35 33 29 28 28 29 31 33 31 30 29 28 29 31 32 32 32 31 30 31 31 30 29 28 27 25 25 24 23 21 21 21 20 20 20 19 18 19 20 21 20 19 18 18 17 16 15 15 15 14 12 11 10 10 10 10 11 11 10 9 10 10 9 8 8 8 9 9 10 9 9 9 9
33 30 25 28 33 35 35 31 28 29 31 32 35 35 31 28 27 29 32 32 29 30 32 30 28 29 31 33 33 32 33 34 34 33 31 30 29 26 26 26 25 23 22 22 21 21 21 20 20 21 23 22 21 20 20 19 19 19 17 16 17 15 12 11 11 11 10 10 11 10 10 10 10 10 9 9 10 10 10 10 9 8 8 9 8
27 28 26 29 35 35 34 32 30 31 33 33 32 33 31 28 27 30 32 32 31 32 33 33 31 29 28 30 32 33 36 37 38 37 35 33 31 28 27 27 27 25 23 22 22 21 21 21 21 22 23 23 22 21 21 20 20 20 20 19 19 18 15 14 13 12 11 11 12 11 10 11 12 11 11 10 10 10 10 10 9 9 8 9 9
18 24 25 29 33 34 31 30 31 32 33 32 32 32 30 27 27 30 31 32 32 33 31 32 33 31 28 28 30 33 37 40 39 38 37 36 33 31 28 25 25 25 24 23 23 22 21 21 20 20 21 23 23 21 22 22 21 21 21 20 20 21 20 19 18 15 13 13 13 13 13 13 13 12 12 11 10 11 11 11 10 9 9 10 10
11 18 23 25 29 31 30 28 30 31 32 33 32 31 29 28 29 29 29 29 30 32 32 32 33 32 29 29 30 31 34 38 40 39 39 37 35 33 30 25 23 23 24 23 23 23 23 22 21 21 22 23 23 22 22 22 22 21 21 21 21 21 22 23 23 21 18 16 15 16 16 14 14 15 15 15 14 13 12 12 11 10 10 11 11
10 11 19 24 27 28 29 28 29 29 31 33 31 29 29 30 29 27 26 25 27 32 33 30 30 33 32 32 33 32 34 37 39 39 38 38 36 35 32 28 24 23 24 25 24 24 24 24 24 25 25 25 26 25 23 23 23 22 22 22 22 22 22 22 23 23 23 22 20 21 20 18 18 20 19 19 19 17 15 13 12 11 11 12 13
14 10 8 17 24 26 27 28 29 29 29 29 29 28 28 29 28 26 24 24 27 31 33 30 30 33 34 33 33 33 35 38 38 38 38 37 36 35 34 31 26 24 25 26 27 27 27 26 25 26 26 27 28 27 25 24 22 21 21 21 21 21 22 23 22 22 23 24 24 25 24 22 21 22 20 19 20 20 19 18 15 14 13 13 13
18 17 12 7 13 19 23 25 26 27 26 25 26 27 26 27 29 27 24 23 24 27 29 29 29 31 32 32 31 31 34 36 38 38 38 37 35 34 34 34 30 26 24 25 28 30 30 29 28 27 27 28 30 29 27 25 21 19 18 19 19 18 20 22 23 23 22 22 23 23 23 22 21 21 19 18 19 19 17 17 15 13 12 12 12
19 19 18 15 12 11 16 21 23 23 23 23 24 25 25 27 27 26 25 24 23 23 25 27 28 29 30 30 31 32 33 35 37 38 37 36 35 34 35 36 35 31 27 26 27 29 30 31 31 30 29 30 31 30 28 26 23 20 18 18 18 18 18 20 22 24 23 22 21 21 21 21 20 20 19 19 20 19 16 15 14 13 12 11 11
19 20 20 19 17 15 14 16 21 22 21 22 24 24 24 25 25 25 25 25 25 24 24 25 26 27 28 29 30 32 33 34 37 38 37 36 35 35 36 36 36 35 32 29 28 28 30 32 33 32 32 32 32 31 29 28 26 24 21 19 18 19 19 18 18 20 22 23 21 21 21 21 19 19 19 18 19 20 20 19 16 13 14 13 11
19 18 20 22 19 16 16 15 18 22 23 23 24 24 23 23 24 24 25 26 25 25 24 24 24 25 26 28 31 32 32 32 34 36 37 36 35 36 37 36 34 34 33 31 29 30 31 34 35 35 35 34 33 32 31 29 29 27 24 20 20 21 20 18 17 17 18 20 21 21 21 20 19 19 19 18 18 19 21 21 19 15 15 15 13
20 16 17 21 20 17 16 16 17 21 24 24 24 24 24 24 24 24 25 25 25 25 25 24 24 25 25 26 28 31 31 30 31 34 36 36 36 36 37 36 34 33 32 31 29 29 31 34 35 37 37 35 34 33 33 31 31 29 25 22 22 23 22 19 18 18 19 19 20 20 20 20 19 19 20 20 20 20 20 21 20 18 17 16 15
23 19 16 16 17 18 17 16 16 18 22 24 24 24 25 25 25 25 25 25 25 25 25 24 24 24 25 25 26 28 29 30 31 33 36 36 36 37 38 40 38 34 31 30 29 28 29 31 34 37 37 36 34 34 34 33 33 31 28 27 28 28 25 21 19 19 20 20 20 19 18 18 18 18 18 19 20 20 20 21 21 20 20 18 16
25 22 17 14 13 17 18 17 17 17 18 21 23 24 24 25 25 24 24 24 24 24 24 24 23 23 24 25 26 27 28 30 31 33 35 37 37 37 39 42 40 35 29 28 29 29 28 30 33 36 36 36 34 33 34 34 34 33 33 33 32 30 29 27 23 18 18 19 18 17 17 17 17 18 18 17 18 18 20 21 21 21 22 21 20
26 23 18 16 16 18 19 19 18 18 19 20 21 23 25 25 25 25 25 25 24 25 25 24 25 25 24 24 25 25 26 30 33 34 35 36 38 39 40 40 40 38 33 30 31 31 30 31 33 35 35 35 34 33 33 33 34 35 34 34 32 30 30 30 27 22 20 19 19 18 19 18 18 18 18 18 17 16 18 20 22 22 23 23 23
24 21 18 19 21 22 20 20 20 20 20 21 21 20 23 26 27 26 27 27 26 26 27 26 26 27 27 27 26 25 24 26 30 35 37 37 38 39 39 39 39 40 40 36 32 30 29 31 34 35 35 35 34 33 32 32 33 34 33 32 31 30 31 31 29 24 21 21 21 22 21 20 19 20 19 18 18 18 19 21 22 22 24 25 24
22 20 17 18 21 22 20 18 20 21 19 16 17 21 23 23 24 25 26 27 28 27 27 27 27 27 27 27 27 26 25 24 25 30 35 37 38 39 39 39 39 41 43 42 36 31 30 32 34 35 36 35 34 33 33 33 33 33 32 31 30 31 33 33 30 24 22 22 22 22 22 21 22 24 24 23 22 21 20 20 20 22 24 23 21
19 19 18 17 18 20 19 18 18 21 21 15 12 18 25 25 23 23 23 25 27 28 27 27 27 27 27 27 26 26 26 25 24 25 30 34 37 38 39 40 40 40 42 43 41 38 35 35 35 36 36 36 34 33 34 34 33 32 32 31 32 33 34 33 30 26 24 23 22 22 24 25 24 25 26 26 24 21 19 18 18 19 21 20 18
14 17 18 18 18 18 18 18 18 19 20 18 13 16 24 27 25 23 22 23 25 25 26 26 27 27 27 27 26 26 26 27 25 23 24 28 34 37 38 40 40 41 42 44 43 42 41 39 39 39 37 35 35 35 34 33 32 32 33 33 34 34 34 33 32 29 27 26 25 24 24 23 21 21 23 24 24 23 22 19 17 18 18 18 19
12 13 15 17 18 18 18 18 19 18 18 18 16 16 21 24 25 22 21 21 22 24 25 26 27 27 26 25 24 24 25 26 26 23 22 25 31 36 39 41 42 43 44 44 43 43 42 39 37 37 36 33 31 31 32 32 32 33 34 34 34 34 34 33 31 28 27 26 24 23 22 20 19 21 22 21 21 22 20 18 19 19 18 18 20
12 11 11 13 16 18 18 18 18 18 18 17 17 17 19 22 24 25 23 21 21 22 23 25 26 26 25 24 23 23 23 25 27 28 28 29 31 34 37 40 42 42 43 42 41 42 41 35 28 27 28 27 25 25 26 26 27 29 31 32 31 31 31 32 31 29 27 25 24 24 23 21 20 20 21 20 20 20 19 19 20 20 19 19 20
14 12 9 10 14 17 19 20 19 19 19 18 18 20 21 23 25 27 26 25 24 23 24 27 29 27 25 26 27 26 26 26 26 28 30 32 33 34 34 37 38 38 39 38 36 35 35 32 27 25 24 23 24 24 23 23 23 24 26 28 28 27 27 29 30 29 28 29 29 28 26 24 21 19 20 21 21 21 21 21 21 21 21 20 20
14 14 11 10 11 15 18 20 21 20 19 19 19 21 23 25 27 27 25 23 24 24 25 28 32 32 32 32 32 31 31 31 29 29 29 31 32 34 35 35 35 34 35 34 34 33 31 27 26 26 25 24 25 25 24 23 23 23 23 24 25 27 27 27 28 29 29 31 32 30 26 24 22 21 22 23 22 22 23 23 20 20 22 21 20
13 14 13 12 11 13 17 20 21 20 19 19 20 21 22 24 27 29 27 24 23 24 24 25 27 32 36 38 38 37 34 32 31 32 32 32 32 31 32 33 33 33 33 32 33 34 31 25 22 23 24 25 25 25 25 24 24 24 24 24 23 25 28 30 32 33 32 31 29 27 26 25 23 22 23 24 23 24 25 24 21 19 20 21 21
13 13 13 13 12 14 18 20 21 20 19 19 20 21 21 21 24 27 29 28 28 27 26 24 23 25 29 35 39 41 39 35 33 32 32 34 34 32 30 30 31 33 33 33 32 30 27 24 23 22 23 24 24 24 24 26 25 24 26 26 25 25 28 34 36 35 34 32 28 25 24 24 23 22 22 23 24 24 25 25 23 20 19 20 21
13 13 13 13 13 13 16 18 20 20 19 18 19 20 20 21 22 23 24 25 27 28 27 25 22 21 22 26 31 37 40 41 39 36 32 31 32 32 31 30 31 32 33 34 33 28 24 22 23 23 23 23 23 23 24 24 25 24 24 26 26 25 26 31 34 33 32 30 27 25 25 24 24 24 23 24 26 28 29 28 25 20 19 20 21
14 14 13 12 11 10 11 13 17 19 19 19 19 19 20 20 21 21 20 20 22 24 26 27 24 22 22 23 25 28 32 37 41 42 37 33 32 31 29 28 29 30 32 34 33 29 25 24 24 24 25 25 24 25 25 24 24 24 24 25 26 25 25 26 28 29 30 27 24 25 26 25 25 25 24 25 27 30 30 28 23 20 19 20 21
12 14 14 13 12 10 10 12 15 18 20 20 20 20 20 21 21 21 20 20 21 22 23 25 26 25 26 26 25 25 26 28 33 37 38 37 36 32 29 29 29 30 34 38 37 32 29 28 26 25 27 27 26 26 27 27 26 26 27 28 27 26 26 25 24 27 29 27 25 25 25 25 25 25 25 26 28 29 29 25 22 19 20 22 25
12 13 14 14 14 13 12 13 15 18 20 21 21 21 20 20 21 20 19 19 21 21 22 23 25 26 28 27 24 22 21 21 24 26 29 32 35 34 33 33 31 29 31 37 40 37 32 30 29 27 28 29 28 27 28 29 28 28 31 34 33 30 28 26 25 27 28 27 25 25 25 25 25 25 26 26 26 27 28 26 22 20 23 27 27
12 12 13 15 16 16 15 14 15 17 18 19 19 19 18 18 20 20 19 19 20 21 21 21 20 22 24 23 21 19 18 17 17 19 22 24 28 32 34 32 29 27 29 34 40 41 39 36 36 35 33 32 32 31 30 29 27 27 31 36 38 37 35 31 28 28 27 26 25 25 25 26 25 25 26 27 24 24 27 25 20 20 24 27 27
11 12 13 14 16 17 16 14 14 16 17 17 16 16 16 17 18 18 18 19 19 20 20 20 20 21 21 20 18 19 19 16 14 17 20 22 26 31 33 30 28 28 29 30 34 39 43 42 40 40 40 40 39 39 38 34 30 30 33 34 35 36 35 31 28 27 26 26 26 26 26 27 26 25 27 26 23 24 25 23 20 21 24 27 29
12 12 12 13 15 16 16 15 13 13 15 15 15 15 15 16 17 17 18 18 19 19 19 20 21 21 20 17 15 17 18 17 15 16 18 21 25 29 31 30 28 27 27 28 29 32 38 41 41 42 45 46 45 45 45 41 36 34 34 35 33 32 30 29 27 27 26 27 27 27 27 27 27 27 28 28 26 25 24 22 22 24 28 29 30
13 13 12 12 13 14 15 15 13 12 13 13 14 14 15 16 16 17 17 18 19 19 20 20 21 21 20 19 18 19 20 20 20 19 18 19 22 26 30 31 31 29 28 28 27 29 33 38 40 42 44 46 48 47 46 43 38 32 30 31 32 30 28 26 26 25 26 26 27 27 27 26 26 26 27 28 27 24 21 21 23 26 29 31 30
13 13 13 12 11 12 13 14 14 13 13 13 13 14 15 16 16 17 17 18 19 20 20 21 21 22 22 21 22 22 24 25 25 25 24 23 23 25 26 28 30 32 32 31 31 33 36 39 40 40 39 41 45 46 45 43 39 33 30 30 30 29 28 27 25 25 26 27 28 27 26 26 27 26 25 26 25 21 19 21 24 26 29 32 31
13 13 13 12 10 10 11 12 13 13 13 13 14 15 16 16 16 16 16 17 18 18 19 20 21 21 22 22 22 23 25 27 27 26 25 25 25 25 26 26 26 28 31 33 35 36 36 37 38 39 38 39 42 44 44 43 41 36 31 26 23 23 26 27 26 26 26 26 27 27 27 27 28 26 24 23 22 19 20 24 26 27 29 30 28
13 13 13 11 10 9 10 10 11 11 12 13 14 14 15 15 15 15 15 16 16 17 18 19 19 20 21 20 20 20 22 26 27 27 26 25 24 24 24 24 24 25 25 27 30 33 33 31 32 35 39 42 42 42 40 38 34 31 27 23 23 27 33 35 32 28 26 25 26 26 26 27 27 25 22 20 19 18 21 27 30 29 29 27 25
12 12 12 11 10 10 9 9 9 10 10 11 11 12 12 13 14 14 14 14 15 15 16 17 18 18 18 17 16 15 16 17 20 23 24 24 22 21 20 21 22 24 24 23 26 30 30 27 27 31 36 39 40 40 38 34 30 30 31 32 35 38 40 39 36 31 27 25 25 24 23 24 25 24 21 20 19 20 22 28 32 31 29 28 27
11 12 12 11 10 10 9 9 9 10 10 10 10 11 12 12 12 13 13 13 13 14 14 15 15 16 15 14 12 11 11 10 11 12 14 14 15 15 16 17 19 20 21 21 23 26 27 27 29 31 33 34 34 35 35 33 33 36 39 41 41 41 39 37 35 33 30 27 24 22 23 24 24 24 22 20 21 22 25 29 32 31 31 30 29
11 12 11 10 10 10 9 9 9 10 10 10 10 11 12 12 12 13 13 13 13 12 12 13 13 13 13 12 11 9 8 6 5 6 7 8 9 10 11 12 13 13 14 15 16 19 22 25 28 30 32 33 33 34 33 31 30 34 38 40 41 42 41 39 36 34 34 31 25 22 23 23 22 21 21 21 22 25 27 28 29 29 30 31 29
11 11 10 10 10 9 8 9 9 10 11 11 11 11 12 12 12 12 13 12 12 11 11 12 12 12 11 11 10 9 8 6 4 4 4 5 6 6 5 5 5 6 6 7 9 11 14 18 21 24 26 29 30 31 31 29 27 29 33 37 40 41 41 40 36 33 32 30 26 24 24 22 19 19 20 22 24 26 28 28 27 26 27 28 26
11 11 10 9 9 8 8 8 9 9 10 11 11 11 12 11 11 12 12 11 11 11 11 12 12 12 11 10 9 9 9 7 7 7 7 7 8 8 7 7 6 5 4 4 4 5 6 8 11 14 18 20 21 22 24 25 25 27 31 35 37 37 37 36 33 30 27 27 27 26 26 24 22 21 22 23 24 24 24 24 24 23 22 23 23
10 10 10 9 8 7 7 7 7 8 9 10 10 11 12 12 11 11 11 11 11 11 11 11 12 11 11 10 9 9 9 9 9 9 10 10 11 12 12 13 13 13 12 12 11 10 8 7 5 5 6 9 11 13 15 16 18 20 24 27 28 27 28 28 27 25 24 25 27 28 27 26 24 23 22 22 22 22 22 21 21 21 22 23 23
9 9 9 8 8 7 6 6 7 8 8 9 10 10 11 11 11 11 11 11 11 11 11 11 11 11 10 10 9 9 9 9 9 10 10 11 13 14 15 17 18 19 20 20 20 19 18 16 14 12 9 6 2 2 6 9 11 15 19 21 21 19 20 22 23 24 25 27 29 30 28 26 25 24 23 22 23 23 22 21 21 21 22 22 22
Wind_Direction
204 208 209 209 212 215 217 220 221 223 224 226 228 230 231 232 233 234 236 238 239 240 243 246 249 251 250 244 237 234 235 233 231 234 236 237 240 241 241 242 244 248 250 246 245 248 248 243 241 243 244 243 240 235 235 238 243 252 257 259 259 262 258 251 278 297 297 309 319 320 327 335 337 341 349 350 349 357 4 4 -0 359 2 2 348
202 208 209 210 213 215 216 218 220 221 222 224 227 229 231 233 233 234 235 237 238 239 241 244 246 248 249 246 242 239 239 238 235 236 238 239 240 241 241 242 241 243 247 249 248 248 248 245 242 243 245 244 240 234 231 232 235 241 245 247 248 254 262 259 272 294 300 307 315 316 322 331 333 336 344 347 349 356 2 1 359 355 352 356 349
201 207 209 210 213 214 214 215 218 219 219 221 225 227 230 233 233 234 234 235 237 238 238 240 242 245 247 246 245 243 241 240 238 239 239 240 240 239 240 242 241 239 242 245 246 246 246 246 243 242 245 246 243 238 234 232 236 241 242 246 250 251 262 268 269 284 297 304 310 313 317 322 325 329 337 343 347 354 359 359 357 356 350 345 346
200 204 207 208 210 210 211 213 214 215 216 219 222 224 225 230 233 234 233 232 234 235 235 236 239 242 244 245 246 245 243 241 240 240 241 241 241 241 242 244 243 241 240 241 241 241 242 244 244 243 245 248 247 244 240 237 239 244 246 251 257 254 259 270 272 275 288 296 301 308 315 317 318 323 330 337 341 346 354 -0 359 359 355 341 331
199 201 203 204 204 206 209 209 209 212 213 216 220 221 220 224 231 233 231 229 231 233 233 233 236 239 241 243 245 245 244 243 242 241 241 241 242 243 244 246 245 245 244 244 243 242 241 241 243 244 245 249 250 246 244 243 244 245 247 251 256 259 263 271 274 274 277 286 294 303 312 315 315 318 324 330 334 335 343 355 0 4 3 351 325
201 200 200 201 202 204 206 207 209 211 213 215 218 219 218 220 226 232 232 229 229 230 232 233 235 237 240 242 243 245 245 244 244 243 241 241 242 243 244 247 248 247 247 247 245 244 243 243 246 247 246 247 247 246 246 250 251 249 249 253 256 262 266 268 271 273 272 278 288 296 303 309 310 311 317 323 327 326 328 335 344 356 1 357 339
199 201 202 202 204 204 204 207 209 209 212 216 217 217 218 220 223 229 232 232 231 229 229 233 235 237 239 241 242 244 245 244 244 244 241 239 241 243 242 244 247 248 249 248 246 243 243 245 248 249 249 250 250 249 249 251 253 253 255 256 256 258 260 260 262 265 268 273 283 289 294 301 303 302 307 317 323 322 321 323 322 328 344 349 344
199 201 203 204 205 206 207 209 210 210 212 217 219 218 218 219 222 227 231 233 233 231 229 232 235 236 237 239 241 242 243 244 244 244 242 239 239 241 242 242 243 246 250 250 249 246 244 247 249 249 251 254 255 254 253 252 253 254 256 256 255 255 256 256 256 259 264 271 279 284 287 292 294 294 300 309 314 308 302 308 310 307 316 332 339
205 205 203 205 209 212 212 210 210 210 211 216 220 220 218 220 222 225 229 232 232 232 232 231 233 235 236 238 240 240 241 244 244 243 242 240 239 239 241 243 242 243 247 250 250 249 247 246 247 250 254 258 262 262 259 258 257 255 254 256 258 256 254 254 254 256 261 268 274 278 279 281 283 283 286 290 293 297 300 301 301 300 304 313 323
209 209 206 208 214 217 217 214 212 211 212 217 221 220 218 218 219 223 228 230 229 231 233 233 232 234 236 238 239 239 240 244 246 246 244 242 241 239 240 244 244 243 244 246 248 249 249 248 248 253 259 263 265 264 262 261 260 258 256 256 257 255 248 249 252 253 257 263 268 271 271 274 278 277 278 283 288 295 299 297 293 291 297 301 303
211 209 209 213 217 219 217 216 215 216 217 218 219 219 217 215 216 222 226 228 227 229 232 233 233 233 234 236 238 239 241 244 246 248 247 245 243 241 241 244 245 244 243 243 245 247 248 249 250 254 260 263 263 263 262 261 261 261 260 258 258 256 249 248 251 252 254 259 262 264 265 268 273 274 277 282 286 292 293 290 287 284 288 297 298
225 214 213 216 219 217 215 215 216 218 219 218 218 218 216 213 215 219 223 224 226 228 229 231 233 232 230 232 235 237 242 246 247 248 248 248 245 242 240 240 241 242 241 241 243 244 244 246 248 248 253 259 260 261 262 263 262 262 262 261 260 259 256 254 254 253 251 254 258 259 258 262 267 269 272 278 284 291 292 285 279 276 277 285 287
260 230 219 217 219 217 215 215 215 217 219 218 218 217 214 214 216 219 220 221 223 226 227 228 231 230 228 230 232 235 240 245 248 248 248 249 247 243 239 236 236 238 239 240 241 241 243 244 244 246 250 255 258 258 259 262 264 263 262 261 259 258 258 257 257 255 252 252 255 257 256 255 260 266 273 282 285 284 283 280 276 274 271 274 278
322 258 228 220 220 220 218 217 216 217 219 219 217 215 214 216 218 218 219 217 218 224 226 225 227 229 230 231 234 235 239 244 247 248 248 248 247 245 241 237 237 238 238 240 240 240 242 242 244 248 251 253 256 257 256 258 261 262 262 260 258 258 258 257 258 257 255 251 251 255 258 257 262 271 278 282 282 278 275 275 276 275 272 274 279
360 341 264 230 225 224 222 221 219 219 219 217 216 215 214 217 218 217 217 216 217 224 226 223 225 229 231 232 234 237 240 243 246 247 248 247 246 245 242 238 237 238 239 240 240 242 244 243 243 247 249 251 254 256 254 254 255 256 256 257 258 259 259 260 260 259 257 255 253 256 261 262 266 274 278 276 278 279 278 275 274 275 274 275 279
2 2 353 303 248 233 227 225 222 221 219 214 215 215 214 217 218 216 217 219 221 225 226 224 224 228 230 230 231 236 240 243 245 246 247 247 244 243 242 240 238 237 237 237 240 244 246 244 244 245 246 250 254 257 255 252 248 246 247 250 251 251 255 262 266 264 261 261 260 260 262 264 266 271 272 270 271 275 278 277 271 267 265 265 270
358 354 353 347 326 285 250 233 225 223 219 215 215 216 216 218 219 217 217 221 224 224 224 225 226 228 230 229 229 234 239 242 244 246 246 245 241 240 240 240 239 237 237 237 239 243 245 244 245 245 245 249 254 257 257 252 246 242 243 246 247 247 250 257 266 269 268 266 265 266 266 267 267 268 268 267 266 265 264 264 260 253 247 249 258
354 348 345 342 336 325 300 259 235 225 222 220 220 219 219 219 219 218 218 220 225 226 226 227 228 229 229 229 230 234 239 242 245 245 245 243 240 238 239 239 239 238 238 238 239 241 243 245 245 245 246 250 253 256 256 252 246 242 242 244 246 248 249 251 256 264 270 271 271 270 268 266 265 266 264 262 265 263 256 253 253 249 247 248 251
348 343 342 341 334 325 317 293 256 234 226 225 225 223 221 220 218 218 220 222 225 228 228 229 229 230 231 232 234 237 239 242 245 245 245 243 239 238 237 236 236 237 238 238 238 240 243 246 247 246 248 251 253 254 254 250 245 242 241 242 244 247 250 250 247 249 256 266 271 271 271 270 267 266 264 261 261 261 257 254 253 246 246 251 250
343 337 336 341 339 327 319 310 283 251 233 228 227 224 222 222 220 219 221 224 225 227 228 228 230 232 233 233 235 237 238 240 242 244 245 242 239 237 234 232 232 234 235 235 236 238 241 244 247 249 250 251 252 253 252 250 247 243 239 237 241 247 251 252 250 248 250 256 264 267 267 269 267 263 262 262 261 259 258 257 253 243 240 247 250
340 336 334 338 339 333 323 314 302 276 248 234 229 227 225 224 224 223 223 224 224 225 226 228 230 234 235 235 236 236 237 238 240 242 244 243 240 236 233 232 232 232 232 233 234 235 238 241 245 248 250 251 251 251 251 250 248 244 240 239 245 253 257 256 253 255 257 258 261 261 258 258 259 255 254 255 256 257 259 260 255 247 242 245 250
339 335 335 335 333 332 328 319 313 303 276 249 232 227 227 228 226 224 224 223 222 223 224 226 230 234 237 238 238 237 238 239 239 240 242 243 241 238 235 235 235 232 230 231 233 234 236 239 243 247 250 252 253 252 251 251 249 246 245 248 253 258 260 258 256 255 256 257 257 256 253 251 250 249 246 245 245 248 254 260 261 256 249 247 248
341 334 331 330 328 330 332 327 322 317 305 283 256 237 231 231 230 227 227 226 225 227 228 229 232 237 240 241 240 237 237 239 241 240 241 242 243 241 239 239 237 233 230 232 234 235 236 238 243 247 251 253 255 254 253 251 249 249 250 252 256 259 258 257 255 252 252 254 255 254 253 250 248 248 247 245 243 242 247 256 262 263 257 253 251
341 334 327 326 327 328 331 332 328 322 317 309 294 269 247 236 233 232 232 230 230 232 234 235 236 237 240 242 243 242 238 237 241 243 242 242 243 242 241 240 239 236 234 235 236 236 236 239 244 249 252 254 256 256 255 253 251 252 254 253 254 255 254 252 251 249 248 251 252 253 252 248 246 247 246 245 250 253 254 256 259 260 259 257 255
339 334 327 324 325 326 326 330 332 327 320 312 303 294 279 256 241 237 236 233 233 234 235 236 235 236 237 239 242 244 241 237 238 243 245 244 243 243 243 241 240 238 236 237 238 239 240 243 248 252 254 256 256 255 254 253 253 254 255 254 253 250 248 248 247 244 243 245 246 246 246 244 248 254 257 257 258 258 256 254 255 257 258 257 253
335 331 328 324 324 325 324 326 331 328 321 314 295 287 286 275 257 246 240 236 234 235 234 234 235 235 237 238 238 240 242 239 236 237 242 244 243 243 243 243 242 241 239 239 241 242 243 246 249 252 254 255 254 253 253 254 256 256 254 252 249 245 243 244 242 238 238 241 241 241 244 248 252 258 262 262 259 255 253 251 251 252 251 247 243
327 327 327 325 326 327 325 326 330 327 323 323 310 285 281 280 270 257 247 241 238 235 234 234 235 234 235 237 238 238 239 240 236 230 233 238 241 242 242 242 241 240 238 239 241 242 244 246 248 250 252 253 252 253 253 253 253 253 251 249 246 244 242 242 241 239 239 241 242 244 248 250 249 251 255 258 258 258 256 250 245 245 243 237 235
317 322 324 324 326 328 325 325 328 326 322 321 314 296 287 286 281 270 257 249 245 241 237 235 235 235 235 234 234 235 236 235 231 225 222 228 235 238 238 238 238 236 235 236 238 240 242 244 246 246 247 247 247 247 248 247 246 246 248 248 246 246 245 242 240 238 238 241 244 246 247 245 243 245 249 251 253 255 253 246 242 243 238 232 233
309 316 323 324 325 326 325 324 323 320 317 315 308 295 285 281 280 278 271 264 259 258 255 247 241 239 239 236 232 230 230 230 231 230 229 229 232 234 235 236 237 237 239 238 236 236 237 237 236 237 236 235 236 237 237 237 237 239 242 243 243 242 241 239 237 235 235 237 240 241 243 243 242 243 245 246 248 250 246 240 240 241 232 227 233
307 310 320 325 325 326 324 322 319 316 314 312 307 298 289 282 279 279 279 277 273 270 267 260 253 249 248 245 239 233 233 236 239 241 240 237 237 238 240 242 243 243 244 241 233 231 234 233 229 228 227 227 228 229 228 228 227 230 234 235 235 234 233 234 235 235 236 238 240 241 243 242 240 239 243 246 247 246 243 237 236 237 231 225 230
306 308 313 321 326 325 321 317 315 313 312 312 310 304 299 295 288 283 283 286 285 279 272 263 256 251 249 250 249 246 246 247 248 249 249 246 244 243 244 247 248 247 245 238 228 225 229 230 228 227 225 225 227 227 226 225 224 225 228 229 230 230 229 230 233 235 236 239 241 241 240 239 237 239 244 247 245 242 241 237 233 233 231 228 228
301 304 308 314 321 323 319 316 313 312 313 313 310 306 304 303 298 292 287 286 286 284 280 272 262 253 248 249 251 252 253 254 253 252 252 251 249 246 245 246 247 247 243 235 227 226 227 228 229 227 224 224 227 227 226 225 223 224 226 227 226 226 226 230 235 237 237 237 238 237 236 236 237 237 240 243 243 240 238 235 229 226 227 227 226
296 298 303 309 317 321 320 317 313 312 312 310 307 304 303 301 301 300 298 294 288 283 280 279 277 267 256 252 252 253 254 255 254 252 250 250 250 248 247 245 244 243 236 227 223 226 228 228 230 229 225 226 228 227 227 228 226 224 225 226 225 224 228 237 240 238 236 236 235 234 235 236 236 236 236 238 239 237 236 233 228 224 224 223 222
295 294 297 304 310 315 317 314 309 306 304 299 295 294 294 292 293 298 302 302 298 291 284 283 287 288 279 267 260 257 256 255 253 251 249 250 251 249 245 241 237 235 230 224 222 225 227 227 229 229 229 229 229 228 229 229 228 226 225 227 229 227 230 238 239 235 233 234 235 236 239 239 238 238 237 236 236 236 237 234 227 220 218 218 217
295 296 299 302 303 306 308 305 301 297 294 292 289 288 288 290 290 291 294 297 298 295 291 288 289 293 293 286 277 269 264 260 256 252 248 247 248 246 239 232 227 225 223 222 223 224 226 227 228 228 229 229 228 228 229 228 227 227 227 230 234 233 231 232 232 231 230 231 233 237 239 238 237 235 234 233 234 235 235 230 223 218 216 214 214
297 298 302 303 302 302 301 297 293 291 290 290 290 289 289 290 289 289 290 289 288 287 288 289 291 291 288 286 285 284 280 270 262 256 250 245 243 239 231 224 222 221 221 222 222 223 225 228 228 227 229 230 229 228 229 229 228 228 230 233 235 234 233 230 228 229 229 228 228 233 235 234 234 232 230 232 234 235 233 228 221 218 216 214 215
294 296 300 302 302 302 299 294 291 288 287 287 288 289 292 294 293 293 293 290 287 285 284 287 291 291 287 284 286 291 289 279 270 263 254 246 241 237 232 228 225 222 222 224 224 223 223 226 229 229 229 230 230 230 231 232 231 230 233 237 236 235 235 233 230 230 229 225 222 226 230 234 234 231 229 230 232 232 232 228 221 216 217 218 218
289 290 293 297 300 299 295 292 291 289 288 289 290 293 297 299 298 296 294 292 291 289 285 283 281 280 279 280 285 292 292 285 274 264 254 243 235 232 231 230 228 226 227 228 229 228 228 229 231 232 232 233 233 234 234 234 231 229 232 236 238 238 239 238 235 232 231 229 226 227 229 234 236 232 229 229 229 230 230 225 214 211 214 216 215
288 287 289 295 297 294 290 288 289 290 291 292 294 297 298 298 296 295 294 293 292 291 288 285 278 273 273 275 279 284 287 283 270 258 250 242 235 231 228 227 228 230 230 231 232 232 232 233 234 235 237 238 238 239 239 237 233 232 233 234 235 237 237 234 231 231 233 235 235 233 232 235 236 232 229 228 227 231 230 221 210 210 212 212 213
291 291 294 296 294 292 289 287 285 287 290 293 296 297 297 295 294 293 293 293 292 290 289 287 282 279 279 277 275 274 275 272 265 256 248 242 238 235 231 229 228 229 231 232 233 232 233 235 236 237 239 240 241 242 243 241 238 236 236 234 233 233 231 227 225 228 232 235 236 235 234 235 234 232 232 230 229 230 228 218 211 214 217 216 215
294 294 296 294 292 291 290 289 287 287 287 290 293 295 295 295 295 296 296 295 294 293 291 290 288 286 285 283 280 274 269 266 266 264 258 252 248 243 239 237 237 236 234 233 233 234 236 238 238 239 240 242 242 243 244 243 240 237 235 233 233 234 233 229 225 224 229 233 235 234 234 233 231 232 233 230 227 226 223 215 210 212 217 220 217
297 296 295 292 290 291 289 289 292 295 295 295 297 297 298 299 299 299 299 297 296 296 294 294 295 294 291 289 286 278 268 264 264 264 261 259 258 255 251 248 247 246 243 241 241 241 241 242 243 243 242 242 243 243 242 241 238 236 235 235 235 236 237 235 229 224 226 232 235 236 236 235 232 232 232 228 224 220 215 212 207 203 209 217 218
296 294 292 288 285 285 285 287 292 295 297 301 303 303 304 303 302 301 301 300 300 300 299 298 300 301 300 298 294 283 270 263 261 261 259 256 254 254 254 253 253 252 251 251 252 250 246 243 245 246 245 244 244 243 242 241 239 237 237 237 238 244 250 249 239 228 225 231 236 238 238 237 234 230 227 225 221 215 210 209 205 199 202 211 214
296 290 288 284 281 280 280 283 287 289 292 298 301 302 303 303 302 303 305 305 306 307 307 307 308 308 307 307 305 294 278 264 258 258 259 257 254 252 251 251 252 253 252 252 255 256 251 245 244 246 247 248 247 245 244 244 242 240 240 240 241 246 252 253 248 238 231 232 236 236 235 234 232 228 224 221 217 210 205 206 206 203 202 204 204
295 289 284 282 283 284 284 287 288 290 294 299 300 302 304 304 304 306 309 313 316 317 316 316 315 314 314 314 312 306 296 277 262 257 258 259 259 258 255 252 252 254 254 253 256 258 255 247 243 245 247 249 248 248 248 247 244 242 243 242 240 240 243 247 249 247 238 232 232 232 230 228 226 224 222 220 215 209 204 205 207 207 205 202 200
295 291 286 284 287 289 292 296 300 302 307 310 310 312 313 313 312 313 316 321 325 324 323 322 321 320 323 325 322 316 310 296 278 266 263 264 266 267 263 257 254 254 254 253 252 252 248 244 243 245 247 247 248 249 250 249 246 246 248 248 245 243 243 245 246 243 237 231 229 227 226 225 223 222 221 219 214 211 208 208 208 208 207 206 204
299 295 289 289 293 295 299 306 311 315 319 321 321 323 324 322 321 321 322 326 330 331 331 330 328 327 329 335 338 338 333 321 307 295 286 283 283 282 275 268 262 260 260 257 253 249 246 244 245 245 246 246 246 246 247 247 246 247 250 252 249 246 244 242 240 237 234 232 229 226 223 223 222 221 219 216 213 211 211 211 210 208 208 208 206
304 300 295 295 299 302 308 317 322 325 328 328 328 328 328 328 327 328 327 328 333 338 339 338 337 336 336 339 346 352 356 358 2 1 353 347 342 335 324 306 291 283 280 277 271 264 259 256 253 252 252 253 251 249 248 246 242 239 241 245 246 243 241 240 239 238 236 233 230 226 222 220 219 218 216 213 213 212 212 213 211 207 204 205 202
308 305 304 304 306 309 316 325 330 331 331 332 333 334 333 331 331 331 332 333 338 344 346 345 344 343 343 346 351 358 3 13 23 31 35 37 35 34 34 35 34 35 31 16 351 329 308 289 276 268 265 263 262 257 253 249 244 239 238 240 241 240 239 238 239 238 236 232 228 223 220 217 216 215 213 210 210 210 211 212 211 204 197 194 192
314 312 311 311 315 319 325 332 335 336 336 337 337 337 337 335 334 335 338 340 343 348 352 352 349 348 350 353 -0 8 15 21 28 35 43 52 57 59 60 59 59 60 61 59 57 53 45 31 8 323 286 272 265 259 252 248 245 242 241 241 240 238 236 236 235 231 227 224 220 216 213 209 206 205 205 203 201 201 203 204 203 195 187 183 184
321 322 320 319 321 326 335 342 344 342 343 345 344 342 339 338 338 339 343 346 348 353 358 358 356 354 355 359 5 15 24 29 33 38 45 51 58 64 67 67 67 68 67 65 64 63 61 58 55 51 47 47 49 223 224 226 230 234 238 238 235 230 227 226 224 219 216 212 207 202 199 194 189 187 188 188 188 188 188 186 183 178 174 173 173